EDT,Max TemperatureF,Mean TemperatureF,Min TemperatureF,Max Dew PointF,MeanDew PointF,Min DewpointF,Max Humidity, Mean Humidity, Min Humidity, Max Sea Level PressureIn, Mean Sea Level PressureIn, Min Sea Level PressureIn, Max VisibilityMiles, Mean VisibilityMiles, Min VisibilityMiles, Max Wind SpeedMPH, Mean Wind SpeedMPH, Max Gust SpeedMPH,PrecipitationIn, CloudCover, Events, WindDirDegrees
2013-3-1,39,36,33,34,32,30,100,88,76,30.05,30.02,29.98,10,5,1,12,6,14,0.08,8,Rain-Snow,311
2013-3-2,34,32,29,32,24,21,96,83,69,30.14,30.09,30.03,10,8,3,17,10,21,0.01,8,Snow,347
2013-3-3,40,33,26,24,18,13,84,61,37,30.15,30.11,30.08,10,10,7,15,7,22,T,4,Snow,302
2013-3-4,45,34,23,25,20,15,81,57,33,30.17,30.08,29.94,10,10,9,15,6,17,0.00,7,,120
2013-3-5,48,40,31,46,37,25,100,73,45,29.91,29.76,29.61,10,4,1,35,11,43,0.42,8,Rain-Snow,228
2013-3-6,35,33,31,29,28,26,85,80,75,30.32,30.10,29.82,10,8,2,25,14,30,T,8,Snow,312
2013-3-7,39,36,32,29,27,25,85,72,59,30.41,30.37,30.30,10,8,5,10,5,13,T,8,Snow,319
2013-3-8,50,40,30,28,26,24,78,57,36,30.47,30.41,30.35,10,10,8,13,5,16,0.00,2,,65
2013-3-9,63,49,34,34,29,26,75,50,25,30.34,30.20,30.04,10,10,10,21,6,25,0.00,6,,124
2013-3-10,71,62,52,48,33,30,50,37,23,30.03,29.94,29.80,10,10,9,29,12,37,0.06,8,Rain,164
2013-3-11,57,48,38,54,45,31,96,79,61,29.94,29.77,29.69,10,7,2,28,12,36,1.07,8,Rain,228
2013-3-12,51,44,36,33,28,23,85,62,39,30.12,30.02,29.95,10,10,10,24,11,29,0.00,6,,268
2013-3-13,38,33,28,32,20,14,82,63,43,30.41,30.25,30.09,10,10,9,26,14,32,T,6,Snow,291
2013-3-14,48,36,24,34,22,17,92,62,31,30.42,30.34,30.24,10,10,6,16,6,20,T,5,,241
2013-3-15,64,49,33,41,35,29,89,64,39,30.22,29.98,29.77,10,10,9,15,5,22,T,6,,173
2013-3-16,73,58,43,49,45,39,83,62,41,30.01,29.78,29.67,10,9,5,25,15,30,0.02,7,Rain,280
2013-3-17,43,39,34,39,36,33,93,88,82,30.11,30.04,29.92,10,5,2,15,10,20,1.03,8,Rain-Snow,41
2013-3-18,53,45,37,50,41,34,100,88,76,29.91,29.76,29.66,10,7,1,22,9,29,0.91,8,Rain-Thunderstorm,277
2013-3-19,49,40,31,36,23,13,85,54,23,30.18,30.08,29.92,10,10,10,26,13,32,0.00,3,,277
2013-3-20,45,35,25,21,17,11,75,55,35,30.17,30.10,30.05,10,10,10,26,12,33,0.00,2,,272
2013-3-21,36,29,21,13,11,9,65,49,32,30.10,30.06,30.02,10,10,9,16,6,20,T,2,Snow,301
2013-3-22,45,35,24,18,15,11,68,49,30,30.12,30.06,30.02,10,10,8,10,3,13,0.00,5,,181
2013-3-23,57,48,39,27,22,13,45,37,28,30.05,29.98,29.83,10,10,10,13,5,17,0.00,7,,61
2013-3-24,47,41,35,38,34,22,92,65,37,29.82,29.56,29.42,10,5,2,23,9,29,0.57,8,Rain-Thunderstorm,70
2013-3-25,38,35,32,32,30,28,96,86,75,30.04,29.72,29.50,10,5,2,26,16,31,0.02,8,Snow,273
2013-3-26,43,38,33,32,29,24,89,69,49,30.31,30.16,30.03,10,7,1,18,10,23,0.01,8,Snow,300
2013-3-27,48,39,29,26,23,22,78,58,37,30.37,30.33,30.31,10,10,10,15,6,21,0.00,4,,283
2013-3-28,54,42,29,27,24,20,78,53,28,30.41,30.35,30.30,10,10,7,10,2,15,0.00,0,,323
2013-3-29,59,47,35,40,33,25,83,64,44,30.34,30.28,30.21,10,10,9,12,3,16,0.00,4,,175
2013-3-30,62,48,34,43,37,33,100,68,36,30.25,30.16,29.95,10,5,0,14,5,18,T,6,Fog,141
2013-3-31,63,56,49,48,46,42,100,76,51,29.92,29.86,29.83,10,7,2,18,7,24,0.05,7,Rain,266